Fort Campbell, TN

11:17 AM CDT on October 01, 2016 (GMT -0500)
Outlaw

Weather History for KCKV - December, 2011

Change the Weather History Date:

Friday, December 9, 2011

  Actual Average Record
Temperature  
Mean Temperature 36 °F -  
Max Temperature 49 °F - 75 °F (1952)
Min Temperature 23 °F - 13 °F (1968)
Degree Days  
Heating Degree Days 29    
Month to date heating degree days 207  
Since 1 July heating degree days 890  
Cooling Degree Days 0    
Month to date cooling degree days 0  
Moisture  
Dew Point 27 °F    
Average Humidity 75    
Maximum Humidity 100    
Minimum Humidity 49    
Precipitation  
Precipitation 0.00 in - 3.05 in (2008)
Month to date precipitation 3.34  
Sea Level Pressure  
Sea Level Pressure 30.31 in    
Wind  
Wind Speed 5 mph (NNW)    
Max Wind Speed 16 mph    
Max Gust Speed 20 mph    
Visibility 6 miles    
Events Fog    
T = Trace of Precipitation, MM = Missing Value Source: NWS Daily Summary

Daily Weather History Graph

Daily Weather History Graph

Search for Another Location

Airport or City:

Trip Planner

Search our weather history database for the weather conditions in past years. The results will help you decide how hot, cold, wet, or windy it might be!

Date:

Astronomy

Dec. 09, 2011 Rise Set
Actual Time 6:49 AM CST 4:33 PM CST
Civil Twilight 6:21 AM CST 5:02 PM CST
Nautical Twilight 5:49 AM CST 5:34 PM CST
Astronomical Twilight 5:17 AM CST 6:06 PM CST
Moon 3:57 PM CST (12/9) 5:56 AM CST (12/9)
Length of Visible Light 10h 41m
Length of Day
9h 43m
Waxing Gibbous, 99% of the Moon is Illuminated
Dec 9
Waxing Gibbous
Dec 10
Full
Dec 17
Last Quarter
Dec 24
New
Jan 1
First Quarter

Hourly Weather History & Observations

Time (CST) Temp. Windchill Dew Point Humidity Pressure Visibility Wind Dir Wind Speed Gust Speed Precip Events Conditions
12:52 AM 27.0 °F - 24.1 °F 89% 30.25 in 10.0 mi Calm Calm - N/A   Clear
1:52 AM 25.0 °F 20.7 °F 23.0 °F 92% 30.27 in 7.0 mi SSE 3.5 mph - N/A   Clear
2:17 AM 24.8 °F - 23.0 °F 93% 30.25 in 1.8 mi Calm Calm - N/A   Clear
2:52 AM 24.1 °F - 23.0 °F 96% 30.26 in 3.0 mi Calm Calm - N/A   Clear
3:52 AM 25.0 °F - 23.0 °F 92% 30.25 in 5.0 mi Calm Calm - N/A   Clear
3:55 AM 24.8 °F - 24.8 °F 100% 30.24 in 1.2 mi Calm Calm - N/A   Clear
4:03 AM 24.8 °F - 24.8 °F 100% 30.25 in 0.5 mi Calm Calm - N/A Fog Light Freezing Fog
4:14 AM 24.8 °F - 23.0 °F 93% 30.25 in 1.8 mi Calm Calm - N/A   Clear
4:18 AM 24.8 °F - 23.0 °F 93% 30.25 in 3.0 mi Calm Calm - N/A   Clear
4:36 AM 24.8 °F - 24.8 °F 100% 30.25 in 1.5 mi Calm Calm - N/A   Clear
4:46 AM 24.8 °F - 23.0 °F 93% 30.25 in 3.0 mi Calm Calm - N/A   Clear
4:52 AM 24.1 °F - 23.0 °F 96% 30.27 in 6.0 mi Calm Calm - N/A   Clear
5:31 AM 24.8 °F - 23.0 °F 93% 30.26 in 1.8 mi Calm Calm - N/A   Clear
5:50 AM 24.8 °F - 23.0 °F 93% 30.26 in 3.0 mi Calm Calm - N/A   Clear
5:52 AM 24.1 °F - 23.0 °F 96% 30.28 in 5.0 mi Calm Calm - N/A   Clear
6:52 AM 24.1 °F - 23.0 °F 96% 30.29 in 7.0 mi Calm Calm - N/A   Clear
7:52 AM 27.0 °F - 26.1 °F 96% 30.31 in 9.0 mi Calm Calm - N/A   Clear
8:52 AM 33.1 °F - 30.0 °F 89% 30.31 in 6.0 mi Calm Calm - N/A   Clear
9:52 AM 39.9 °F - 32.0 °F 73% 30.31 in 9.0 mi Calm Calm - N/A   Clear
10:52 AM 45.0 °F - 30.9 °F 58% 30.31 in 10.0 mi Calm Calm - N/A   Clear
11:52 AM 46.9 °F - 30.0 °F 52% 30.30 in 10.0 mi NW 8.1 mph - N/A   Clear
12:52 PM 46.9 °F - 28.9 °F 50% 30.28 in 10.0 mi West 5.8 mph - N/A   Clear
1:52 PM 48.9 °F - 30.0 °F 48% 30.28 in 10.0 mi WNW 8.1 mph - N/A   Clear
2:52 PM 48.0 °F - 30.0 °F 50% 30.28 in 10.0 mi NNW 9.2 mph - N/A   Clear
3:52 PM 45.0 °F 40.6 °F 30.9 °F 58% 30.30 in 10.0 mi NNW 8.1 mph - N/A   Clear
4:52 PM 41.0 °F 35.8 °F 30.0 °F 65% 30.32 in 10.0 mi NNW 8.1 mph - N/A   Clear
5:52 PM 41.0 °F 33.9 °F 30.9 °F 67% 30.35 in 10.0 mi North 12.7 mph - N/A   Clear
6:52 PM 37.0 °F 28.9 °F 32.0 °F 82% 30.39 in 10.0 mi North 12.7 mph - N/A   Clear
7:52 PM 35.1 °F 28.6 °F 32.0 °F 89% 30.41 in 6.0 mi NNW 8.1 mph - N/A   Mostly Cloudy
8:52 PM 37.0 °F 29.3 °F 32.0 °F 82% 30.43 in 7.0 mi North 11.5 mph - N/A   Overcast
9:52 PM 34.0 °F 26.6 °F 30.0 °F 85% 30.44 in 8.0 mi North 9.2 mph - N/A   Mostly Cloudy
10:00 PM 33.8 °F 27.0 °F 30.2 °F 87% 30.43 in 8.0 mi North 8.1 mph - N/A   Scattered Clouds
10:52 PM 32.0 °F 27.5 °F 28.0 °F 85% 30.45 in 9.0 mi North 4.6 mph - N/A   Mostly Cloudy
11:52 PM 30.0 °F 25.2 °F 27.0 °F 88% 30.45 in 8.0 mi NNW 4.6 mph - N/A   Clear